sat.trackr.live / text

‹ back to catalog

LEMUR-2-ESPERANZA

NORAD 63352 · 2025-061B

PAYLOAD ACTIVE UNKNOWN

§ Identity

Operator
Country
US
Launch date
2025-03-26
Launch site
RLLB
Launch vehicle
Mass (kg)
RCS (m²)

Purposes: earth_obs

External: N2YO · Heavens-Above · Gunter

§ Orbital elements

Epoch: 2026-09-19T09:18:13.605408Z

Period
95.10 min
Inclination
97.5759°
Eccentricity
0.0016628
Mean motion
15.14150359 rev/d
Perigee alt
512.1 km
Apogee alt
535.0 km
Semi-major
6,901.7 km
B*
1.3210e-4
RAAN
237.2708°
Arg perigee
302.9620°
Mean anomaly
57.0013°
Rev number
8,184

§ Raw data

LEMUR-2-ESPERANZA1 63352U 25061B   26262.38765747  .00002348  00000+0  13210-3 0  99942 63352  97.5759 237.2708 0016628 302.9620  57.0013 15.14150359 81848

JSON: /api/v1/satellites/63352 · /tle

For live sub-satellite position, see the globe view (requires WebGL).

§ Visibility from observer

Set your observer location to see the next 7 days of passes ≥ 10°. The values pass through the URL so the page stays shareable.

No JS? Fill the form by hand. The geolocation button needs JavaScript.